Weather Roundup
Issued by NWS Springfield, MO

Home | Current Version | Previous Version | Text Only | Print | Product List | Glossary On
Versions: 1 2 3 4 5 6 7 8 9 10 11 12 13 14 15 16 17 18 19 20 21 22 23 24 25 26 27 28 29 30 31 32 33 34 35 36 37 38 39 40 41 42 43 44 45 46 47 48 49 50
000
NZUS99 KSGF 012159
HRRSGF

HOURLY WEATHER
NATIONAL WEATHER SERVICE SPRINGFIELD MO
500 PM CDT SAT AUG 01 2015

......SGF CWA......

CITY           SKY/WX    TMP DP  RH WIND       PRES   REMARKS
SPRINGFIELD    SUNNY     90  59  35 VRB7      30.02F
JOPLIN         MOSUNNY   92  65  40 CALM      30.00F HX  94
WEST PLAINS    SUNNY     89  60  37 SW5       30.05S
ROLLA          CLOUDY    81  66  60 S7        29.99F
OSAGE BEACH    CLOUDY    79  61  53 W3        30.02F
BRANSON        MOSUNNY   91  63  38 CALM      30.05S HX  92

......SURROUNDING SGF CWA......

CITY           SKY/WX    TMP DP  RH WIND       PRES   REMARKS
CHANUTE        SUNNY     92  67  43 S6        29.99F HX  95
PARSONS        PTSUNNY   91  71  51 VRB5      30.00F HX  97
COFFEYVILLE    PTSUNNY   92  69  47 S9        29.98F HX  97
EMPORIA        MOSUNNY   91  66  43 CALM      29.98F HX  93
GROVE OK       MOSUNNY   93  64  38 W3        30.02S HX  95
SILOAM SPRINGS PTSUNNY   90  66  45 W7          N/A  HX  92
HARRISON AR    SUNNY     91  62  37 W5        30.04S HX  91
NEAR YELLVILLE SUNNY     93  61  33 NE6       30.00S HX  93

......KANSAS AND MISSOURI......

CITY           SKY/WX    TMP DP  RH WIND       PRES   REMARKS
KANSAS CTY INT MOSUNNY   90  70  51 W6        29.97F HX  95
DOWNTOWN KC    MOSUNNY   93  69  45 VRB6      29.95F HX  98
COLUMBIA       PTSUNNY   80  66  62 SW13      30.01S
SEDALIA        PTSUNNY   76  68  76 N7        30.04F
ST JOSEPH      MOSUNNY   89  75  63 W9        29.95F HX  99
ST LOUIS       MOSUNNY   91  66  43 W8        29.99F HX  93
SPIRIT OF STL  MOSUNNY   88  70  55 CALM      29.97F HX  93
KIRKSVILLE     PTSUNNY   89  71  55 VRB5      29.98F HX  95
WICHITA        MOSUNNY   90  70  51 S9        29.98F HX  95
TOPEKA         MOSUNNY   91  67  44 SW5       29.96F HX  94
OLATHE         MOSUNNY   90  68  48 S5        29.98F HX  94

......TENNESSEE......

CITY           SKY/WX    TMP DP  RH WIND       PRES   REMARKS
MEMPHIS        MOSUNNY   95  61  32 NW8       29.97F HX  95
NASHVILLE      MOSUNNY   92  64  39 N13       29.97F HX  93

......ARKANSAS.......

CITY           SKY/WX    TMP DP  RH WIND       PRES   REMARKS
FAYETTEVILLE   SUNNY     87  67  51 W5        30.03F HX  90
FT SMITH       SUNNY     95  58  28 N7        29.97F HX  94
LITTLE ROCK    PTSUNNY   95  61  32 SE8       29.97F HX  95

......OKLAHOMA.......

CITY           SKY/WX    TMP DP  RH WIND       PRES   REMARKS
TULSA          PTSUNNY   92  61  35 SW8       29.98F HX  92
PONCA CITY     PTSUNNY   91  68  46 VRB7      29.97F HX  95
MCALESTER      SUNNY     94  59  31 VRB5      29.99F HX  93
OKLAHOMA CITY  PTSUNNY   89  66  46 S10       30.00F HX  91

......IOWA............

CITY           SKY/WX    TMP DP  RH WIND       PRES   REMARKS
DES MOINES     CLOUDY    87  69  54 S8        29.92F HX  91
QUAD CITIES    MOSUNNY   84  64  50 SW8       29.94F

......ILLINOIS........

CITY           SKY/WX    TMP DP  RH WIND       PRES   REMARKS
QUINCY         SUNNY     85  69  58 SW8       29.98F
CHICAGO        PTSUNNY   85  59  41 W14G24    29.91F



USA.gov is the U.S. government's official web portal to all federal, state and local government web resources and services.